Weather History for Dickinson, ND

Change the Weather History Date:

Friday, October 18, 2013

  Actual Average Record
Temperature  
Mean Temperature 40 °F 43 °F  
Max Temperature 47 °F 56 °F 82 °F (2000)
Min Temperature 33 °F 31 °F 10 °F (1930)
Degree Days  
Heating Degree Days 25 22  
Month to date heating degree days 344 331  
Since 1 July heating degree days 512 685  
Cooling Degree Days 0 0  
Month to date cooling degree days 0 0  
Year to date cooling degree days 386 418  
Moisture  
Dew Point 32 °F    
Average Humidity 73    
Maximum Humidity 92    
Minimum Humidity 53    
Precipitation  
Precipitation 0.03 in 0.04 in 0.45 in (1994)
Month to date precipitation 4.18 0.80  
Year to date precipitation 20.67 14.56  
Sea Level Pressure  
Sea Level Pressure 30.00 in    
Wind  
Wind Speed 13 mph (WNW)    
Max Wind Speed 25 mph    
Max Gust Speed 31 mph    
Visibility 9 miles    
Events Snow    
T = Trace of Precipitation, MM = Missing Value Source: NWS Daily Summary

Daily Weather History Graph

Daily Weather History Graph

Search for Another Location

Airport:

Trip Planner

Search our weather history database for the weather conditions in past years. The results will help you decide how hot, cold, wet, or windy it might be!

Date:

Astronomy

Oct. 18, 2013 Rise Set
Actual Time 7:13 AM MDT 5:58 PM MDT
Civil Twilight 6:42 AM MDT 6:28 PM MDT
Nautical Twilight 6:07 AM MDT 7:04 PM MDT
Astronomical Twilight 5:32 AM MDT 7:39 PM MDT
Moon 5:47 PM MDT (10/18) 6:51 AM MDT (10/18)
Length of Visible Light 11h 45m
Length of Day
10h 44m
Full, 100% of the Moon is Illuminated
Oct 18
Full
Oct 18
Full
Oct 26
Last Quarter
Nov 3
New
Nov 9
First Quarter

Hourly Weather History & Observations

Time (MDT) Temp. Windchill Dew Point Humidity Pressure Visibility Wind Dir Wind Speed Gust Speed Precip Events Conditions
12:56 AM 35.1 °F 27.9 °F 28.0 °F 76% 30.05 in 10.0 mi West 9.2 mph - N/A   Overcast
1:38 AM 33.8 °F 26.4 °F 28.4 °F 81% 30.00 in 2.5 mi West 9.2 mph - 0.01 in Snow Light Snow
1:56 AM 34.0 °F 27.2 °F 30.0 °F 85% 30.05 in 3.0 mi West 8.1 mph - 0.01 in Snow Light Snow
2:03 AM 33.8 °F 26.4 °F 30.2 °F 87% 30.00 in 2.5 mi West 9.2 mph - 0.00 in Snow Light Snow
2:24 AM 33.8 °F 25.3 °F 30.2 °F 87% 30.00 in 4.0 mi West 11.5 mph - 0.01 in Snow Light Snow
2:56 AM 34.0 °F 24.6 °F 32.0 °F 92% 30.05 in 10.0 mi West 13.8 mph - 0.01 in   Overcast
3:08 AM 33.8 °F 24.8 °F 32.0 °F 93% 30.00 in 10.0 mi WNW 12.7 mph - N/A   Overcast
3:28 AM 33.8 °F 24.8 °F 32.0 °F 93% 30.00 in 10.0 mi WNW 12.7 mph - N/A   Overcast
3:56 AM 35.1 °F 26.4 °F 32.0 °F 89% 30.05 in 10.0 mi WNW 12.7 mph - N/A   Overcast
4:56 AM 34.0 °F 24.6 °F 30.9 °F 89% 30.06 in 10.0 mi WNW 13.8 mph - N/A   Overcast
5:25 AM 33.8 °F 24.3 °F 30.2 °F 87% 30.01 in 10.0 mi WNW 13.8 mph - N/A   Overcast
5:56 AM 34.0 °F 26.0 °F 30.9 °F 89% 30.08 in 10.0 mi WNW 10.4 mph - N/A   Overcast
6:56 AM 34.0 °F 23.8 °F 30.9 °F 89% 30.08 in 10.0 mi WNW 16.1 mph - N/A   Overcast
7:56 AM 35.1 °F 25.9 °F 32.0 °F 89% 30.09 in 10.0 mi WNW 13.8 mph - N/A   Overcast
8:56 AM 36.0 °F 26.7 °F 33.1 °F 89% 30.09 in 10.0 mi WNW 15.0 mph - N/A   Overcast
9:04 AM 35.6 °F 26.2 °F 33.8 °F 93% 30.02 in 10.0 mi WNW 15.0 mph - N/A   Overcast
9:56 AM 36.0 °F 26.7 °F 32.0 °F 86% 30.09 in 6.0 mi WNW 15.0 mph - 0.00 in Snow Light Snow
10:10 AM 35.6 °F 25.9 °F 33.8 °F 93% 30.02 in 9.0 mi West 16.1 mph - 0.00 in   Overcast
10:56 AM 39.0 °F 31.0 °F 34.0 °F 82% 30.08 in 10.0 mi West 13.8 mph - 0.00 in   Overcast
11:03 AM 39.2 °F 30.8 °F 35.6 °F 87% 30.01 in 10.0 mi West 15.0 mph - N/A   Mostly Cloudy
11:18 AM 39.2 °F 30.5 °F 35.6 °F 87% 30.00 in 10.0 mi West 16.1 mph - N/A   Overcast
11:30 AM 41.0 °F 33.1 °F 35.6 °F 81% 30.00 in 10.0 mi WNW 15.0 mph - N/A   Overcast
11:56 AM 42.1 °F 33.3 °F 33.1 °F 70% 30.05 in 10.0 mi WNW 19.6 mph - N/A   Overcast
12:56 PM 42.1 °F 35.2 °F 32.0 °F 67% 30.02 in 10.0 mi West 12.7 mph - N/A   Overcast
1:56 PM 44.1 °F 35.4 °F 30.9 °F 60% 29.99 in 10.0 mi NW 21.9 mph 26.5 mph 0.01 in   Overcast
2:56 PM 46.0 °F 39.6 °F 30.0 °F 54% 29.96 in 10.0 mi WNW 15.0 mph 21.9 mph N/A   Clear
3:56 PM 45.0 °F 38.2 °F 30.9 °F 58% 29.95 in 10.0 mi West 15.0 mph - N/A   Mostly Cloudy
4:56 PM 44.1 °F 37.1 °F 32.0 °F 63% 29.94 in 10.0 mi WNW 15.0 mph 25.3 mph N/A   Overcast
5:56 PM 41.0 °F 32.8 °F 34.0 °F 76% 29.95 in 10.0 mi WNW 16.1 mph 25.3 mph N/A   Overcast
6:56 PM 39.9 °F 33.4 °F 35.1 °F 83% 29.92 in 10.0 mi West 10.4 mph - 0.00 in   Overcast
7:56 PM 41.0 °F 34.3 °F 33.1 °F 73% 29.90 in 10.0 mi West 11.5 mph - N/A   Overcast
8:56 PM 41.0 °F 34.7 °F 33.1 °F 73% 29.88 in 10.0 mi WSW 10.4 mph - N/A   Overcast
9:56 PM 41.0 °F 34.7 °F 33.1 °F 73% 29.86 in 10.0 mi WSW 10.4 mph - N/A   Overcast
10:56 PM 41.0 °F 35.2 °F 33.1 °F 73% 29.85 in 10.0 mi West 9.2 mph - N/A   Overcast
11:56 PM 39.9 °F 35.1 °F 33.1 °F 77% 29.84 in 10.0 mi NW 6.9 mph - N/A   Mostly Cloudy